Regional Weather Roundup
Issued by NWS

Home | Current Version | Previous Version | Text Only | Print | Product List | Glossary Off
Versions: 1 2 3 4 5 6 7 8 9 10 11 12 13 14 15 16 17 18 19 20 21 22 23 24 25 26 27

000
ASUS45 KBOU 020507
RWRCO

WEATHER ROUNDUP FOR COLORADO
NATIONAL WEATHER SERVICE DENVER/BOULDER CO
1100 PM MDT SUN MAY 01 2016

NOTE: "FAIR" INDICATES FEW OR NO CLOUDS BELOW 12000 FEET WITH NO
SIGNIFICANT WEATHER AND/OR OBSTRUCTIONS TO VISIBILITY.

COZ001>005-013-030-031-020600-
...NORTHWEST COLORADO...

CITY           SKY/WX    TMP DP  RH WIND       PRES   REMARKS
CRAIG          CLOUDY    43  27  53 NE6       30.14R
HAYDEN         FAIR      39  23  52 E13       30.15R
MEEKER           N/A     44  28  53 W5        30.16R
MOUNT WERNER   NOT AVBL
STEAMBOAT SPGS MOCLDY    37  25  64 CALM      30.17R
WALDEN         FAIR      25  18  74 NW3       30.25R
$$

COZ006>008-011-020600-
...WEST CENTRAL VALLEYS...

CITY           SKY/WX    TMP DP  RH WIND       PRES   REMARKS
GRAND JUNCTION MOCLDY    49  38  65 E13       30.14R
MONTROSE       CLOUDY    44  33  65 SE9       30.20R
EAGLE          FAIR      43  25  49 NE5       30.20R
RIFLE          CLOUDY    45  39  79 CALM      30.17R
DELTA          NOT AVBL
NUCLA          NOT AVBL
$$

COZ017>023-064>068-020600-
...SOUTHWEST COLORADO...

CITY           SKY/WX    TMP DP  RH WIND       PRES   REMARKS
DURANGO        CLOUDY    38  36  92 CALM      30.23R
CORTEZ         CLOUDY    44  37  76 VRB5      30.20R
PAGOSA SPRINGS FLURRIES  35  35 100 CALM      30.24S
TELLURIDE      CLOUDY    33  33 100 CALM      30.24R
WOLF CREEK PAS SNOW      21  21 100 SW8       30.30S VSB 1/2 WCI  12
$$

COZ009-010-012-014-032>034-037-058>063-020600-
...CENTRAL COLORADO...

CITY           SKY/WX    TMP DP  RH WIND       PRES   REMARKS
ASPEN          FAIR      38  21  50 SE9       30.18R
BUENA VISTA    CLOUDY    31  28  91 SE5       30.28S WCI  26
COPPER MTN     NOT AVBL
BERTHOUD PASS  FAIR      10   1  67 E6        30.25S WCI   1
COTTONWOOD PAS FLURRIES  28  25  86 CALM      30.27S
GUNNISON       CLOUDY    34  28  80 CALM      30.25S
KREMMLING      FAIR      32  21  64 N3        30.23R
LEADVILLE      CLOUDY    22  22 100 S3        30.25S
MONARCH PASS     N/A     18  14  86 MISG      30.37R
SALIDA         CLOUDY    32  30  93 SE6       30.36R WCI  26
SUNLIGHT       FLURRIES  30  30 100 CALM      30.28R
WILKERSON PASS CLOUDY   N/A N/A N/A CALM      30.29F FOG
$$

COZ069>075-020600-
...SAN LUIS VALLEY/SANGRE DE CRISTO MOUNTAINS...

CITY           SKY/WX    TMP DP  RH WIND       PRES   REMARKS
ALAMOSA        FAIR      31  25  78 SE7       30.23S WCI  24
LA VETA PASS   FOG       21  19  93 MISG      30.27S VSB 3/4
SAGUACHE       MIX PCPN  32  32 100 NE5       30.25S WCI  27
$$

COZ035-036-038>040-020600-
...NORTHERN COLORADO FRONT RANGE...

CITY           SKY/WX    TMP DP  RH WIND       PRES   REMARKS
DENVER INTL AP FAIR      34  28  79 SW8       30.29S WCI  27
DMNS CITY PARK   N/A     36  31  81 E7        30.30S
AURORA         FAIR      32  31  99 SW5       30.30S WCI  27
FRONT RANGE AP NOT AVBL
ERIE MUNI ARPT CLOUDY    37  33  87 SW3       30.29F
BOULDER MUN AP CLOUDY    39  32  75 SW3       30.29S
CENTENNIAL     MOCLDY    33  28  81 SW3       30.29S
BROOMFIELD     NOT AVBL
FORT COLLINS   FAIR      36  27  69 N6        30.30S
LONGMONT       CLOUDY    40  35  81 CALM      30.31S
$$

COZ041-046-047-076>085-087-088-020600-
...PIKES PEAK/PALMER DIVIDE AND SOUTHERN FOOTHILLS...

CITY           SKY/WX    TMP DP  RH WIND       PRES   REMARKS
COLO. SPRINGS  CLOUDY    35  27  72 W6        30.30F WCI  30
A. F. ACADEMY  CLOUDY    28  25  86 N6        30.29R WCI  22
SCHRIEVER AFB  NOT AVBL
ELLICOTT       NOT AVBL
FALCON         FAIR      29  24  81 W7        30.30S WCI  22
FORT CARSON    CLOUDY    36  28  75 NW3       30.29S
LIMON          FAIR      26  24  92 CALM      30.29S
MONUMENT HILL  FAIR      23  21  93 W7        30.30S WCI  15
TRINIDAD       CLOUDY    34  31  88 W5        30.30F WCI  30
$$

COZ042>045-048>051-090-091-020600-
...NORTHEAST COLORADO...

CITY           SKY/WX    TMP DP  RH WIND       PRES   REMARKS
GREELEY ARPT   FAIR      36  30  80 CALM      30.30S
AKRON          FAIR      32  24  72 W5        30.28S WCI  27
BURLINGTON     FAIR      33  26  75 NW8       30.27S WCI  26
WRAY           NOT AVBL
STERLING       FAIR      32  30  93 W3        30.27S
HOLYOKE        NOT AVBL
FORT MORGAN    FAIR      33  27  78 SW3       30.30S
$$

COZ086-089-092>099-020600-
...SOUTHEAST COLORADO...

CITY           SKY/WX    TMP DP  RH WIND       PRES   REMARKS
PUEBLO         CLOUDY    39  32  76 S5        30.31F
LA JUNTA       FAIR      38  32  79 W8        30.30S
LAMAR          FAIR      39  31  72 CALM      30.27R
SPRINGFIELD      N/A     38  35  89 NW8       30.27S
$$




USA.gov is the U.S. government's official web portal to all federal, state and local government web resources and services.